AST,Max TemperatureF,Mean TemperatureF,Min TemperatureF,Max Dew PointF,MeanDew PointF,Min DewpointF,Max Humidity, Mean Humidity, Min Humidity, Max Sea Level PressureIn, Mean Sea Level PressureIn, Min Sea Level PressureIn, Max VisibilityMiles, Mean VisibilityMiles, Min VisibilityMiles, Max Wind SpeedMPH, Mean Wind SpeedMPH, Max Gust SpeedMPH,PrecipitationIn, CloudCover, Events, WindDirDegrees
2013-2-1,73,70,67,66,63,59,94,78,64,30.01,29.94,29.86,6,4,3,18,12,,0.00,6,Rain,12
2013-2-2,76,70,64,59,52,43,78,56,29,30.14,30.04,29.98,6,6,5,17,11,,0.00,,,348
2013-2-3,75,68,61,55,48,41,77,50,20,30.23,30.17,30.12,9,6,6,20,9,30,0.00,1,,312
2013-2-4,72,66,60,50,47,43,63,50,35,30.27,30.21,30.15,10,7,6,20,14,30,0.00,1,,326
2013-2-5,76,67,58,57,52,48,72,63,41,30.27,30.21,30.15,10,8,6,12,7,,0.00,1,,330
2013-2-6,71,64,57,55,53,52,82,67,42,30.32,30.24,30.21,9,7,6,9,4,,0.00,,,43
2013-2-7,75,66,58,57,54,46,82,65,37,30.27,30.18,30.12,9,8,6,10,4,,0.00,,,102
2013-2-8,80,70,59,61,55,43,94,67,28,30.18,30.10,30.06,7,4,4,9,4,,0.00,3,,189
2013-2-9,81,70,59,59,48,32,82,50,17,30.13,30.05,29.98,9,7,6,8,4,,0.00,,,224
2013-2-10,82,72,63,54,45,34,64,40,19,30.05,29.99,29.95,7,5,5,8,4,,0.00,,,182
2013-2-11,80,72,63,63,50,36,78,49,21,30.01,29.95,29.92,7,6,5,13,5,,0.00,,,127
2013-2-12,79,72,66,66,62,55,88,71,47,29.95,29.91,29.86,7,4,4,16,8,22,0.00,,,120
2013-2-13,79,72,64,65,60,52,83,66,49,30.05,30.00,29.92,6,4,2,20,8,,0.00,2,,341
2013-2-14,74,68,62,50,46,39,63,48,23,30.12,30.05,30.01,7,5,4,20,12,32,0.00,,,320
2013-2-15,76,68,60,64,56,48,83,66,38,30.12,30.05,30.01,7,6,5,14,9,,0.00,,,346
2013-2-16,80,70,61,63,57,44,100,69,21,30.08,29.99,29.92,6,3,0,13,5,,0.00,2,Fog,142
2013-2-17,80,72,63,63,58,48,88,63,39,29.97,29.91,29.86,6,4,2,13,7,,0.00,3,,297
2013-2-18,76,70,65,59,55,50,78,60,42,29.98,29.94,29.89,7,6,5,15,9,,0.00,4,,338
2013-2-19,76,70,64,61,56,52,83,63,44,30.01,29.95,29.89,10,7,6,12,7,,0.00,2,,12
2013-2-20,76,70,65,61,57,52,78,63,44,30.09,30.01,29.92,10,7,6,17,10,,0.00,3,Rain,360
2013-2-21,80,72,64,55,44,34,68,39,11,30.11,30.05,30.01,9,8,7,21,12,,0.00,,,333
2013-2-22,78,70,63,55,45,34,68,40,22,30.14,30.06,30.04,10,8,6,16,8,,0.00,,,325
2013-2-23,75,68,60,63,57,52,83,68,51,30.11,30.04,29.98,10,8,6,10,6,,0.00,,,100
2013-2-24,78,71,64,66,62,50,88,72,38,30.07,30.00,29.92,7,5,1,20,8,,0.00,3,,91
2013-2-25,78,72,66,54,48,39,64,46,18,30.17,30.11,30.06,6,4,2,21,14,34,0.00,,,319
2013-2-26,79,72,64,55,52,48,68,54,34,30.21,30.14,30.09,6,5,4,17,12,24,0.00,,,331
2013-2-27,75,67,59,55,51,40,77,55,19,30.19,30.12,30.09,7,6,5,9,5,,0.00,,,37
2013-2-28,76,69,62,63,58,52,83,69,44,30.13,30.07,30.04,7,6,6,13,6,,0.00,,,110